, AK

(GMT )
Tin City

Weather History for PATC - June, 2013

Change the Weather History Date:

Wednesday, June 19, 2013

  Actual Average Record
Temperature  
Mean Temperature 56 °F -  
Max Temperature 68 °F 45 °F 68 °F (2013)
Min Temperature 43 °F 36 °F 30 °F (1999)
Degree Days  
Heating Degree Days 10    
Growing Degree Days 6 (Base 50)    
Moisture  
Dew Point 46 °F    
Average Humidity 72    
Maximum Humidity 92    
Minimum Humidity 44    
Precipitation  
Precipitation 0.00 in - - ()
Sea Level Pressure  
Sea Level Pressure 29.73 in    
Wind  
Wind Speed 22 mph (NE)    
Max Wind Speed 30 mph    
Max Gust Speed -    
Visibility 10 miles    
Events Thunderstorm    
Averages and records for this station are not official NWS values.
T = Trace of Precipitation, MM = Missing Value Source: NWS Daily Summary

Daily Weather History Graph

Daily Weather History Graph

Search for Another Location

Airport or City:

Trip Planner

Search our weather history database for the weather conditions in past years. The results will help you decide how hot, cold, wet, or windy it might be!

Date:

Astronomy

Jun. 19, 2013 Rise Set
Actual Time 3:42 AM AKDT 2:44 AM AKDT
Civil Twilight Sun does not set Sun does not set
Nautical Twilight Sun does not set Sun does not set
Astronomical Twilight Sun does not set Sun does not set
Moon 8:38 PM AKDT (6/19) 3:11 AM AKDT (6/19)
Length of Visible Light 24h 00m
Length of Day
23h 01m
Waxing Gibbous, 82% of the Moon is Illuminated
Jun 19
Waxing Gibbous
Jun 23
Full
Jun 29
Last Quarter
Jul 7
New
Jul 15
First Quarter

Hourly Weather History & Observations

Time (AKDT) Temp. Windchill Dew Point Humidity Pressure Visibility Wind Dir Wind Speed Gust Speed Precip Events Conditions
12:55 AM 43.7 °F 34.1 °F 41.5 °F 92% 29.86 in 10.0 mi NNE 26.5 mph - N/A Thunderstorm Clear
1:55 AM 48.2 °F - 42.6 °F 81% 29.88 in 10.0 mi NNE 18.4 mph - N/A   Clear
2:55 AM 57.2 °F - 45.0 °F 64% 29.86 in 10.0 mi NE 20.7 mph - N/A   Clear
3:55 AM 49.6 °F - 45.0 °F 84% 29.84 in 10.0 mi NNE 23.0 mph - N/A   Clear
4:55 AM 47.5 °F - 43.5 °F 86% 29.83 in 10.0 mi NNE 26.5 mph - N/A   Clear
5:55 AM 44.6 °F 34.9 °F 41.4 °F 88% 29.80 in 10.0 mi NNE 28.8 mph - N/A   Clear
6:55 AM 45.1 °F 35.5 °F 40.5 °F 84% 29.79 in 10.0 mi NE 29.9 mph - N/A   Clear
7:55 AM 47.7 °F - 42.6 °F 83% 29.78 in 10.0 mi NE 27.6 mph - N/A   Clear
8:55 AM 50.5 °F - 44.2 °F 79% 29.77 in 10.0 mi NE 26.5 mph - N/A   Clear
9:55 AM 52.3 °F - 45.5 °F 78% 29.75 in 10.0 mi NNE 26.5 mph - N/A   Clear
10:55 AM 55.0 °F - 46.8 °F 74% 29.75 in 10.0 mi NNE 24.2 mph - N/A   Clear
11:55 AM 54.7 °F - 47.3 °F 76% 29.73 in 10.0 mi NE 25.3 mph - N/A   Clear
12:55 PM 56.1 °F - 47.5 °F 73% 29.71 in 10.0 mi NE 25.3 mph - N/A   Clear
1:55 PM 63.7 °F - 50.2 °F 61% 29.71 in 10.0 mi NNE 19.6 mph - N/A   Clear
2:55 PM 65.5 °F - 51.3 °F 60% 29.69 in 10.0 mi NE 17.3 mph - N/A   Clear
3:55 PM 61.2 °F - 50.7 °F 69% 29.68 in 10.0 mi NE 12.7 mph - N/A   Clear
4:55 PM 61.9 °F - 50.4 °F 66% 29.67 in 10.0 mi NE 13.8 mph - N/A   Clear
5:55 PM 63.9 °F - 50.5 °F 62% 29.65 in 10.0 mi NE 17.3 mph - N/A   Clear
6:55 PM 64.2 °F - 49.6 °F 59% 29.63 in 10.0 mi NE 16.1 mph - N/A   Clear
7:55 PM 62.1 °F - 49.3 °F 63% 29.61 in 10.0 mi NE 15.0 mph - N/A   Clear
8:55 PM 57.6 °F - 47.1 °F 68% 29.61 in 10.0 mi NE 12.7 mph - N/A   Clear
9:55 PM 68.4 °F - 45.9 °F 44% 29.62 in 10.0 mi SSE 11.5 mph - N/A   Clear
10:55 PM 55.9 °F - 46.0 °F 69% 29.66 in 10.0 mi SSE 15.0 mph - N/A   Clear